Tiempo cada hora Murol

Hoy, 27 Octubre, Martes

Tiempo Temperatura Precipitaciones Viento Presión Humedad
00:00 +4°C° 2.1 mm 1 mps 696 mmHg 98%
01:00 +5°C° 0 mm 1 mps 696 mmHg 98%
02:00 +5°C° 1.7 mm 1 mps 696 mmHg 98%
03:00 +5°C° 1.7 mm 1 mps 697 mmHg 98%
04:00 +5°C° 1.7 mm 1 mps 697 mmHg 98%
05:00 +4°C° 0.3 mm 1 mps 697 mmHg 97%
06:00 +4°C° 0.3 mm 1 mps 697 mmHg 97%
07:00 +4°C° 0 mm 1 mps 697 mmHg 97%
08:00 +5°C° 0 mm 1 mps 698 mmHg 95%
09:00 +6°C° 0 mm 1 mps 698 mmHg 93%
10:00 +8°C° 0 mm 1 mps 699 mmHg 91%
11:00 +8°C° 0.1 mm 1 mps 699 mmHg 89%
12:00 +8°C° 0.1 mm 1 mps 699 mmHg 88%
13:00 +9°C° 0.1 mm 1 mps 699 mmHg 86%
14:00 +9°C° 0.1 mm 1 mps 699 mmHg 88%
15:00 +8°C° 0.1 mm 1 mps 699 mmHg 89%
16:00 +8°C° 0.1 mm 1 mps 699 mmHg 91%
17:00 +7°C° 0 mm 1 mps 699 mmHg 92%
18:00 +5°C° 0 mm 1 mps 699 mmHg 93%
19:00 +3°C° 0 mm 2 mps 700 mmHg 94%
20:00 +2°C° 0 mm 2 mps 700 mmHg 92%
21:00 +2°C° 0 mm 2 mps 700 mmHg 91%
22:00 +2°C° 0 mm 2 mps 700 mmHg 89%
23:00 +2°C° 0 mm 2 mps 700 mmHg 89%

Mañana, 28 Octubre, Miércoles

Tiempo Temperatura Precipitaciones Viento Presión Humedad
00:00 +2°C° 0 mm 2 mps 700 mmHg 88%
01:00 +1°C° 0 mm 2 mps 700 mmHg 87%
02:00 +2°C° 0 mm 2 mps 700 mmHg 85%
03:00 +2°C° 0 mm 2 mps 700 mmHg 83%
04:00 +3°C° 0 mm 2 mps 700 mmHg 81%
05:00 +4°C° 0 mm 2 mps 701 mmHg 79%
06:00 +4°C° 0 mm 2 mps 701 mmHg 78%
07:00 +5°C° 0 mm 2 mps 701 mmHg 76%
08:00 +6°C° 0 mm 2 mps 702 mmHg 78%
09:00 +8°C° 0 mm 1 mps 702 mmHg 80%
10:00 +9°C° 0 mm 1 mps 702 mmHg 83%
11:00 +10°C° 0 mm 1 mps 702 mmHg 83%
12:00 +11°C° 0 mm 1 mps 702 mmHg 84%
13:00 +10°C° 0 mm 0 mps 702 mmHg 84%
14:00 +11°C° 0 mm 1 mps 702 mmHg 86%
15:00 +11°C° 0 mm 1 mps 702 mmHg 88%
16:00 +11°C° 0 mm 1 mps 702 mmHg 90%
17:00 +10°C° 0 mm 1 mps 703 mmHg 91%
18:00 +9°C° 0 mm 1 mps 703 mmHg 92%
19:00 +7°C° 0 mm 2 mps 703 mmHg 93%
20:00 +7°C° 0 mm 2 mps 704 mmHg 91%
21:00 +7°C° 0 mm 2 mps 704 mmHg 90%
22:00 +7°C° 0 mm 2 mps 704 mmHg 88%
23:00 +7°C° 0 mm 2 mps 704 mmHg 88%

Pasado mañana, 29 Octubre, Jueves

Tiempo Temperatura Precipitaciones Viento Presión Humedad
00:00 +7°C° 0 mm 2 mps 704 mmHg 87%
01:00 +7°C° 0 mm 2 mps 704 mmHg 87%
02:00 +7°C° 0 mm 2 mps 704 mmHg 88%
03:00 +7°C° 0 mm 2 mps 704 mmHg 89%
04:00 +7°C° 0 mm 2 mps 704 mmHg 90%
05:00 +7°C° 0.5 mm 2 mps 704 mmHg 92%
06:00 +7°C° 0.5 mm 2 mps 705 mmHg 93%
07:00 +7°C° 0.5 mm 2 mps 705 mmHg 95%
08:00 +7°C° 0.3 mm 2 mps 705 mmHg 95%
09:00 +7°C° 0.3 mm 2 mps 705 mmHg 95%
10:00 +8°C° 0.3 mm 2 mps 705 mmHg 96%
11:00 +8°C° 0.4 mm 2 mps 705 mmHg 95%
12:00 +8°C° 0.4 mm 2 mps 705 mmHg 95%
13:00 +9°C° 0.4 mm 2 mps 705 mmHg 94%
14:00 +8°C° 0.1 mm 2 mps 706 mmHg 94%
15:00 +8°C° 0.1 mm 2 mps 706 mmHg 94%
16:00 +8°C° 0.1 mm 2 mps 706 mmHg 94%
17:00 +8°C° 0.1 mm 2 mps 707 mmHg 94%
18:00 +8°C° 0.1 mm 2 mps 707 mmHg 94%
19:00 +7°C° 0.1 mm 2 mps 708 mmHg 95%
20:00 +8°C° 0.2 mm 2 mps 708 mmHg 95%
21:00 +8°C° 0.2 mm 2 mps 708 mmHg 95%
22:00 +8°C° 0.2 mm 2 mps 708 mmHg 96%
23:00 +8°C° 0.3 mm 2 mps 708 mmHg 95%

30 Octubre, Viernes

Tiempo Temperatura Precipitaciones Viento Presión Humedad
00:00 +8°C° 0.3 mm 2 mps 708 mmHg 95%
01:00 +7°C° 0.3 mm 2 mps 708 mmHg 95%
02:00 +7°C° 0.4 mm 2 mps 708 mmHg 95%
03:00 +7°C° 0.4 mm 2 mps 708 mmHg 95%
04:00 +7°C° 0.4 mm 2 mps 709 mmHg 95%
05:00 +7°C° 0 mm 2 mps 709 mmHg 94%
06:00 +7°C° 0 mm 2 mps 708 mmHg 94%
07:00 +7°C° 0 mm 2 mps 708 mmHg 93%
08:00 +9°C° 0 mm 1 mps 708 mmHg 92%
09:00 +10°C° 0 mm 1 mps 709 mmHg 90%
10:00 +11°C° 0 mm 1 mps 709 mmHg 88%
11:00 +12°C° 0 mm 1 mps 708 mmHg 85%
12:00 +13°C° 0 mm 2 mps 708 mmHg 81%
13:00 +14°C° 0 mm 2 mps 708 mmHg 78%
14:00 +14°C° 0 mm 1 mps 708 mmHg 80%
15:00 +13°C° 0 mm 1 mps 708 mmHg 83%
16:00 +13°C° 0 mm 1 mps 708 mmHg 86%
17:00 +11°C° 0 mm 1 mps 708 mmHg 89%
18:00 +10°C° 0 mm 1 mps 709 mmHg 92%
19:00 +9°C° 0 mm 1 mps 709 mmHg 95%
20:00 +9°C° 0 mm 1 mps 709 mmHg 95%
21:00 +8°C° 0 mm 1 mps 709 mmHg 95%
22:00 +8°C° 0 mm 1 mps 709 mmHg 95%
23:00 +8°C° 0 mm 1 mps 709 mmHg 94%

31 Octubre, Sábado

Tiempo Temperatura Precipitaciones Viento Presión Humedad
00:00 +8°C° 0 mm 1 mps 709 mmHg 93%
01:00 +8°C° 0 mm 1 mps 709 mmHg 92%
02:00 +8°C° 0 mm 1 mps 709 mmHg 91%
03:00 +7°C° 0 mm 1 mps 708 mmHg 90%
04:00 +7°C° 0 mm 1 mps 708 mmHg 89%
05:00 +7°C° 0 mm 1 mps 708 mmHg 87%
06:00 +7°C° 0 mm 1 mps 708 mmHg 86%
07:00 +7°C° 0 mm 1 mps 708 mmHg 84%
08:00 +9°C° 0 mm 1 mps 708 mmHg 80%
09:00 +12°C° 0 mm 1 mps 708 mmHg 76%
10:00 +14°C° 0 mm 1 mps 708 mmHg 71%
11:00 +15°C° 0 mm 1 mps 708 mmHg 69%
12:00 +18°C° 0 mm 1 mps 708 mmHg 66%
13:00 +19°C° 0 mm 1 mps 708 mmHg 64%
14:00 +18°C° 0 mm 1 mps 708 mmHg 70%
15:00 +16°C° 0 mm 1 mps 707 mmHg 77%
16:00 +15°C° 0 mm 1 mps 707 mmHg 84%
17:00 +13°C° 0 mm 1 mps 707 mmHg 86%
18:00 +12°C° 0 mm 1 mps 707 mmHg 88%
19:00 +10°C° 0 mm 1 mps 707 mmHg 90%
20:00 +10°C° 0 mm 1 mps 707 mmHg 89%
21:00 +10°C° 0 mm 1 mps 707 mmHg 88%
22:00 +10°C° 0 mm 1 mps 707 mmHg 88%
23:00 +10°C° 0 mm 1 mps 707 mmHg 87%

1 Noviembre, Domingo

Tiempo Temperatura Precipitaciones Viento Presión Humedad
00:00 +9°C° 0 mm 1 mps 707 mmHg 86%
01:00 +9°C° 0 mm 1 mps 707 mmHg 85%
02:00 +9°C° 0 mm 1 mps 707 mmHg 85%
03:00 +9°C° 0 mm 1 mps 707 mmHg 85%
04:00 +9°C° 0 mm 1 mps 707 mmHg 84%
05:00 +8°C° 0 mm 1 mps 707 mmHg 84%
06:00 +8°C° 0 mm 1 mps 707 mmHg 83%
07:00 +8°C° 0 mm 1 mps 707 mmHg 82%
08:00 +10°C° 0 mm 1 mps 708 mmHg 78%
09:00 +12°C° 0 mm 1 mps 708 mmHg 75%
10:00 +13°C° 0 mm 0 mps 708 mmHg 71%
11:00 +16°C° 0 mm 1 mps 708 mmHg 67%
12:00 +18°C° 0 mm 1 mps 708 mmHg 63%
13:00 +19°C° 0 mm 1 mps 708 mmHg 59%
14:00 +16°C° 0 mm 0 mps 708 mmHg 67%
15:00 +15°C° 0 mm 0 mps 708 mmHg 74%
16:00 +13°C° 0 mm 0 mps 707 mmHg 82%
17:00 +12°C° 0 mm 0 mps 707 mmHg 85%
18:00 +12°C° 0 mm 1 mps 707 mmHg 87%
19:00 +11°C° 0 mm 1 mps 707 mmHg 90%
20:00 +10°C° 0 mm 1 mps 707 mmHg 89%
21:00 +10°C° 0 mm 1 mps 707 mmHg 88%
22:00 +10°C° 0 mm 1 mps 707 mmHg 87%
23:00 +10°C° 0 mm 1 mps 707 mmHg 85%
Mostrar más

Necesitamos Su Consentimiento

Meteoprog y nuestros Proveedores de Servicios pueden almacenar y acceder a sus datos personales como cookies, identificadores de dispositivo u otras tecnologías similares de su dispositivo y procesar dichos datos para personalizar contenido y anuncios, además de ofrecer funciones de redes sociales y analizar el tráfico.

  • Almacenar y/o acceder a información en su dispositivo

    Se puede almacenar o acceder a cookies, identificadores de dispositivo u otra información de su dispositivo para los fines anteriormente indicados.

  • Anuncios y contenido personalizados, medición de anuncios y contenido, percepciones del público, y desarrollo de productos

    Los anuncios y el contenido pueden personalizarse en base a su perfil. Se pueden añadir más datos para personalizar mejor los anuncios y contenidos. Se puede medir el rendimiento de los anuncios y contenidos. Se puede obtener la percepción sobre el público que ha visto los anuncios y contenidos. Dichos datos pueden usarse para desarrollar o mejorar la experiencia del usuario, sistemas y software.

Al hacer clic en ‘Estoy De Acuerdo’ usted permitirá el uso de las cookies, identificadores de dispositivo, balizas web u otras tecnologías similares indicadas. Su configuración puede cambiarse desde el navegador de su dispositivo.

Para ciertos fines, los intereses legítimos pueden ser considerados por encima del consentimiento. Puede leer más sobre ello en nuestra Política de Privacidad y Cookies.